sat.trackr.live / text

‹ back to catalog

STARLINK-11122 [DTC]

NORAD 60040 · 2024-112C

PAYLOAD ACTIVE UNKNOWN

§ Identity

Operator
Country
US
Launch date
2024-06-08
Launch site
AFWTR
Launch vehicle
Mass (kg)
RCS (m²)

Purposes: comms

External: N2YO · Heavens-Above · Gunter

§ Orbital elements

Epoch: 2026-09-21T13:43:44.516064Z

Period
91.74 min
Inclination
53.1584°
Eccentricity
0.0001387
Mean motion
15.69712603 rev/d
Perigee alt
358.8 km
Apogee alt
360.7 km
Semi-major
6,737.9 km
B*
-1.2821e-5
RAAN
20.8525°
Arg perigee
104.6024°
Mean anomaly
255.5148°
Rev number
13,174

§ Raw data

STARLINK-11122 [DTC]1 60040U 24112C   26264.57204301 -.00002142  00000+0 -12821-4 0  99902 60040  53.1584  20.8525 0001387 104.6024 255.5148 15.69712603131742

JSON: /api/v1/satellites/60040 · /tle

For live sub-satellite position, see the globe view (requires WebGL).

§ Visibility from observer

Set your observer location to see the next 7 days of passes ≥ 10°. The values pass through the URL so the page stays shareable.

No JS? Fill the form by hand. The geolocation button needs JavaScript.